ROMMA est une association bénévole à but non lucratif. Votre soutien est indispensable : ADHERER à ROMMA ou FAIRE un DON

Crempigny - (74, Haute-Savoie)

Albanais-Montagne des Princes (500 m)   Longitude: 05° 54' 5" E   Latitude: 45° 57' 0" N Station partenaire n°10
 

Détail journalier du     <<     >>

Température Precipitation Humidité Pression Vent Dir Rafale Dir. rafale Ensol. 20 cm au dessus du sol
Heure (°C) (mm) (%) (hPa) (km/h) (km/h) (min) (°C)
01:00 2.209710094NO6NO01.7
02:00 1.709710091NO6NO01.1
03:00 2.0098100903NO02.2
04:00 2.209810102NO15N02.2
05:00 2.609810101ONO5NNO02.8
06:00 2.909810101NO5NO02.8
07:00 2.30.69710101NO6SSO02.2
08:00 2.409810111SSO5SSO02.8
09:00 2.909810121SSO3SSO03.9
10:00 3.309810121SSO5SSO05.0
11:00 5.109710121SSO5SSO4011.7
12:00 5.909210127NO16NO458.9
13:00 6.508810127ONO15NO58.3
14:00 7.408510125NE15N08.9
15:00 7.208410136NNE15NNO08.3
16:00 6.808510137NNE18NE106.7
17:00 6.208710147NNE16NNE455.6
18:00 5.308910156NNE15NE05.0
19:00 5.109010157NO13NNO04.4
20:00 4.809010168NO13ONO04.4
21:00 4.7090101610NO16NNE03.9
22:00 4.408910168NO16NO02.8
23:00 3.909310155NO11NNO03.9
minuit 2.909210164NNO11NNO02.2

Graphique du 10-11-2019

 

Serveur OMMA